SCOUT A R/B, 2413

Orbit data source: Space-Track

SCOUT A R/B, 2413 is space debris in LEO originally from a launch on Thu, 18 Aug 1966 UTC launched from the Air Force Western Test Range (AFWTR). Debris objects in space refer to the collection of defunct objects orbiting the Earth. Examples of debris include non-operational satellites, rocket bodies, and fragments generated from explosions, collisions, or faulty payload assembly.

Loading next visibility...
Identifier
2413, 1966-076B
Orbit
LEO
Country
Flag of USUS
Related business
Manufacturer
ABL
Mission
Spacecraft
Bus & Motor
ALTAIR, Unknown motor
Mass
33 kg wet, 33 kg dry
Launch date (UTC)
1966-08-18 (60 years ago)
Launch vehicle
Unknown
Launch site
Air Force Western Test Range (AFWTR)
Object type
Payload
Rocket body
Debris
Shape & HBR
Unknown
Radar Cross Section
Medium (>0.1 m² and <1 m²)

Expand to show TLE details & history
Last TLE update: 14 hours ago

TLE from 14 hours ago
0 SCOUT A R/B
1 02413U 66076B   26120.87856175  .00000080  00000-0  10263-3 0  9996
2 02413  88.8449  77.2722 0031352 199.4707 160.5249 13.51865994942262
Epoch: 2026-04-30T21:05Z
TLE epoch observation values (Epoch: 2026-04-30T21:05:07.735Z)
Latitude
-0.00006°
Longitude
-97.82888°
Altitude
1,090.369 km
Speed
7.296 km/s
True Right ascension
05h 09m 05s
True Declination
0° 00' 00"
Sunlit
Object was in daylight at epoch
Visualization orbit readout
Latitude
Unknown
Longitude
Unknown
Altitude
Unknown
Speed
Unknown
Apparent Right ascension
Unknown
Apparent Declination
Unknown
Sunlit
N/A
Visualization observer readout
Local Sidereal Time
18:12:14
Azimuth
Unknown
Elevation
Unknown
Doppler factor
Unknown
Orbital elements
Apogee altitude
1,085.779 km
Perigee altitude
1,039.124 km
Semi-major axis
7,440.589 km
Eccentricity
0.00314
Inclination
88.8449°
RAAN
77.2722°
Arg. of periapsis
199.4707°
True anomaly
160.64424°
Mean anomaly
160.5249°
Eccentric anomaly
160.58461°
Mean motion
3.38168 °/min
Orbital period
106.46 mins
BSTAR
0.00010263
Loading maneuver chart data...
Computing Atmospheric mass density...
Loading historical data...
Loading historical data...
Loading historical data...
Loading historical data...
Loading historical data...
Loading historical data...
Loading historical data...

Documentation

Showing up to 5 results
|